[[{"header":{"parameterUnit":"m.s-1","parameterCategory":1,"la1":30.2991,"la2":30.254,"lo1":-89.0895,"lo2":-89.0444,"dy":0.0017,"dx":0.0017,"nx":28,"ny":28,"refTime":"2025-08-01T21:00:00:Z","depth":0,"parameterNumber":2,"parameterNumberName":"U-component_of_WINDS"},"data":[0,0,0,0,0,0,0,0,0,0,0,0,0,0,0,0,0,0,0,0,0,0,0,0,0,0,0,0,0,0,0,0,0,0,0,0,0,0,0,0,0,0,0,0,0,0,0,0,0,0,0,0,0,0,0,0,0,0,1.9781,1.9782,0,1.9877,1.9878,1.9879,1.9861,1.9859,1.9857,1.9856,1.9962,1.9967,1.9971,0,0,0,0,0,0,0,0,0,0,0,0,0,1.9587,1.9591,1.978,1.9782,1.9783,1.9877,1.9878,1.988,1.9861,1.9859,1.9857,1.9855,1.9961,1.9966,1.9972,0,0,0,0,0,0,0,0,0,0,0,0,0,1.9676,1.9592,1.978,1.9785,1.9786,1.9877,1.9878,1.988,1.9862,1.9859,1.9856,1.9854,1.9959,1.9966,1.9972,2.0067,0,0,1.9993,1.9996,0,0,0,0,0,0,0,0,1.9671,1.9683,1.9783,1.9785,1.9786,1.9854,1.9849,1.9943,1.9862,1.9833,1.9856,1.9853,1.9929,1.9938,1.9962,2.0072,2.0076,1.9994,1.9998,2.0,2.0002,0,0,0,0,0,0,0,1.9665,1.9679,1.9819,1.9784,1.9787,1.9784,1.9794,1.9867,1.9895,1.9836,1.9834,1.9846,1.993,1.9956,1.9965,2.0078,1.9993,1.9999,2.0003,2.0006,2.027,2.0273,0,0,0,0,0,0,1.9656,1.9674,1.9816,1.9822,1.9721,1.979,1.9801,1.9835,1.9894,1.99,1.9848,1.9844,1.9946,1.9957,1.9968,2.0083,2.0,2.0007,2.0011,2.0267,2.0271,2.0274,0,0,0,0,0,0,1.9652,1.9669,1.9812,1.9748,1.9766,1.9796,1.9835,1.9838,1.9864,1.9903,1.9909,1.9869,1.9944,1.9959,2.0042,2.0086,2.001,2.0016,2.0264,2.0268,2.0272,2.0312,0,0,0,0,0,0,1.9647,1.9668,1.9702,1.9748,1.9769,1.9882,1.9837,1.9842,1.9875,1.9872,1.9925,1.9931,1.9943,2.0032,2.0049,2.0094,2.0021,2.026,2.0266,2.0271,2.0307,2.0317,2.0326,0,0,0,0,0,1.964,1.9711,1.9704,1.9721,1.9812,1.9884,1.9896,1.9907,1.9879,1.9915,1.994,1.9929,2.0078,2.0041,2.0059,2.0107,2.0257,2.0264,2.0271,2.0303,2.0315,2.0326,0,0,0,0,0,0,1.9672,1.9717,1.971,1.9798,1.9837,1.9881,1.9927,1.992,1.997,1.9965,1.9977,1.999,2.0074,2.0099,2.0056,2.0202,2.0164,2.0175,2.0182,2.0195,2.0204,2.0197,2.0027,0,0,0,0,0,1.9689,1.9741,1.9779,1.9853,1.9873,1.9896,1.9928,1.9932,1.9975,1.9992,2.0023,2.0066,2.0123,2.016,2.0214,2.031,2.0322,2.0353,2.0362,2.037,2.0379,2.0432,2.0446,2.0296,2.0296,2.0296,0,0,1.9726,1.9757,1.979,1.9861,1.9891,1.9947,1.9911,1.9972,2.0014,2.0002,2.0081,2.0106,2.0155,2.0245,2.0286,2.0269,2.0423,2.0379,2.0384,2.039,2.0441,2.0455,2.0467,2.0301,2.03,2.0299,0,0,1.982,1.9849,1.9913,1.9944,1.9991,2.0006,2.0021,2.0066,2.0081,2.016,2.0153,2.0204,2.0301,2.0337,2.0368,2.0475,2.0468,2.0493,2.0543,2.0595,2.0607,2.0617,2.0656,2.067,2.0502,2.0502,2.0502,0,1.9861,1.9942,1.9948,2.0009,2.0041,2.003,2.0097,2.0128,2.0191,2.0214,2.0193,2.0314,2.0347,2.0444,2.047,2.0495,2.0515,2.0487,2.0604,2.0615,2.0625,2.0662,2.0676,2.0505,2.0504,2.0504,2.0504,0,1.9989,2.0046,2.0093,2.0151,2.0188,2.0252,2.027,2.0308,2.0309,2.0327,2.0408,2.0447,2.0508,2.0532,2.0535,2.0631,2.0618,2.06,2.0563,2.0641,2.0677,2.0691,2.0509,2.0508,2.0507,2.0506,0,0,2.0108,2.0167,2.0184,2.021,2.026,2.0305,2.037,2.0427,2.0459,2.0503,2.0558,2.064,2.0623,2.0658,2.0665,2.071,2.0793,2.0687,2.0688,2.0705,2.0902,2.0915,2.0931,2.0788,2.0791,2.0793,2.0897,0,2.0207,2.0317,2.0325,2.0425,2.0478,2.0468,2.0524,2.0562,2.058,2.063,2.0652,2.0709,2.0683,2.0704,2.0748,2.0773,2.0833,2.0766,2.0841,2.0843,2.0829,2.0949,2.0963,2.106,2.0911,2.0913,2.0915,0,2.0338,2.0383,2.0488,2.0529,2.0552,2.0602,2.0655,2.0702,2.0745,2.0756,2.0794,2.0794,2.0862,2.0821,2.0916,2.087,2.0901,2.0919,2.0923,2.093,2.0884,2.0961,2.1091,2.1106,2.0937,2.0935,2.0934,0,2.0414,2.0501,2.0575,2.0597,2.0648,2.0683,2.0707,2.0747,2.0781,2.0829,2.0851,2.0907,2.0938,2.0982,2.0998,2.0967,2.1092,2.1052,2.1104,2.1103,2.1131,2.1129,2.1269,2.1151,2.115,2.115,2.115,0,2.0525,2.059,2.0609,2.0655,2.0727,2.0736,2.0809,2.083,2.0866,2.0917,2.0913,2.0962,2.0979,2.1032,2.1045,2.1121,2.1135,2.1147,2.115,2.1147,2.1146,2.1168,2.1162,2.1154,2.1153,2.1152,2.1152,0,2.0622,2.0638,2.0718,2.0758,2.077,2.0822,2.0858,2.0903,2.092,2.0985,2.1,2.1028,2.1089,2.1109,2.1184,2.1193,2.1282,2.1279,2.1266,2.1267,2.1317,2.1312,2.1477,2.1499,2.1366,2.1367,2.1368,0,2.0692,2.0741,2.0786,2.0819,2.0842,2.0895,2.0929,2.094,2.0976,2.1029,2.1068,2.1127,2.1176,2.1274,2.1302,2.136,2.1358,2.1412,2.1367,2.1363,2.1359,2.1356,2.1361,2.142,2.1422,2.1423,2.1424,0,2.0814,2.0819,2.0867,2.0917,2.0957,2.0999,2.1039,2.1066,2.1083,2.1124,2.1185,2.1222,2.1297,2.1357,2.1414,2.1441,2.1436,2.1437,2.1452,2.1451,2.1441,2.1447,2.1289,2.1434,2.1433,2.1432,2.1432,2.1431,2.09,2.0943,2.0981,2.1034,2.1065,2.1102,2.1146,2.1167,2.1217,2.1277,2.1281,2.1347,2.139,2.1467,2.1496,2.1549,2.1534,2.1556,2.1561,2.1566,2.157,2.1432,2.156,2.1559,2.1559,2.1559,2.1559,0,2.1021,2.1045,2.1094,2.1148,2.1191,2.118,2.1223,2.126,2.1317,2.1356,2.1403,2.1473,2.1531,2.1563,2.1621,2.1658,2.1657,2.1673,2.167,2.1677,2.158,2.1561,2.1672,2.1672,2.1672,2.1672,2.1672,2.1672,2.109,2.1162,2.1171,2.1259,2.1283,2.1345,2.1371,2.1406,2.1437,2.1514,2.1561,2.1581,2.1618,2.1678,2.1731,2.1739,2.1761,2.1779,2.1786,2.1695,2.1684,2.1672,2.1655,2.1783,2.1784,2.1878,2.1878,2.1879]},{"header":{"parameterUnit":"m.s-1","parameterCategory":1,"la1":30.2991,"la2":30.254,"lo1":-89.0895,"lo2":-89.0444,"dy":0.0017,"dx":0.0017,"nx":28,"ny":28,"refTime":"2025-08-01T21:00:00:Z","depth":0,"parameterNumber":3,"parameterNumberName":"V-component_of_WINDS"},"data":[0,0,0,0,0,0,0,0,0,0,0,0,0,0,0,0,0,0,0,0,0,0,0,0,0,0,0,0,0,0,0,0,0,0,0,0,0,0,0,0,0,0,0,0,0,0,0,0,0,0,0,0,0,0,0,0,0,0,2.8373,2.8373,0,2.8401,2.8401,2.8402,2.8442,2.8443,2.8443,2.8444,2.8469,2.8469,2.8469,0,0,0,0,0,0,0,0,0,0,0,0,0,2.8349,2.8349,2.8373,2.8373,2.8374,2.8401,2.8401,2.8402,2.8442,2.8443,2.8444,2.8444,2.8469,2.8469,2.8469,0,0,0,0,0,0,0,0,0,0,0,0,0,2.8366,2.8349,2.8373,2.8397,2.84,2.8401,2.8401,2.8402,2.8442,2.8443,2.8444,2.8445,2.8469,2.8469,2.8469,2.8448,0,0,2.8469,2.8469,0,0,0,0,0,0,0,0,2.8365,2.8367,2.8393,2.8395,2.8398,2.8419,2.8402,2.8417,2.8441,2.8426,2.8444,2.8445,2.8451,2.8453,2.8456,2.8449,2.845,2.8469,2.8469,2.8469,2.8469,0,0,0,0,0,0,0,2.8364,2.8366,2.8384,2.8393,2.8397,2.8405,2.8409,2.8405,2.8432,2.8427,2.843,2.8433,2.8453,2.8456,2.8457,2.8451,2.8469,2.8469,2.8469,2.8469,2.8425,2.8424,0,0,0,0,0,0,2.836,2.8365,2.8383,2.8385,2.8384,2.8404,2.8409,2.8411,2.8432,2.8437,2.8432,2.8435,2.8455,2.8457,2.8458,2.8432,2.8469,2.8469,2.8469,2.8426,2.8424,2.8423,0,0,0,0,0,0,2.8359,2.8361,2.8382,2.8376,2.8379,2.8404,2.8407,2.8411,2.8414,2.8436,2.8441,2.843,2.8456,2.8458,2.845,2.8434,2.8469,2.8469,2.8427,2.8425,2.8424,2.8382,0,0,0,0,0,0,2.8359,2.8361,2.8354,2.8375,2.8379,2.8375,2.8406,2.8411,2.8414,2.8418,2.8436,2.8439,2.8457,2.8449,2.845,2.8434,2.8469,2.8429,2.8427,2.8424,2.8385,2.8379,2.8374,0,0,0,0,0,2.8358,2.8341,2.8354,2.8356,2.8372,2.8374,2.8376,2.8398,2.8413,2.8406,2.8419,2.8439,2.8436,2.8448,2.8449,2.8433,2.843,2.8427,2.8425,2.8387,2.838,2.8374,0,0,0,0,0,0,2.8317,2.8344,2.8359,2.8349,2.8359,2.8381,2.8372,2.839,2.8395,2.8398,2.8423,2.8427,2.8415,2.8424,2.8437,2.8412,2.8436,2.8433,2.8407,2.84,2.8395,2.8392,2.8469,0,0,0,0,0,2.8307,2.8308,2.8331,2.832,2.8325,2.8347,2.8349,2.8365,2.8376,2.838,2.8393,2.8401,2.8402,2.8402,2.8404,2.8387,2.8389,2.8376,2.837,2.8366,2.8362,2.8351,2.8344,2.8414,2.8414,2.8415,0,0,2.8286,2.8301,2.83,2.8312,2.8322,2.832,2.8351,2.8348,2.8346,2.8379,2.8372,2.8382,2.8393,2.8379,2.8374,2.8386,2.8344,2.8362,2.8359,2.8358,2.8348,2.8341,2.8335,2.8413,2.8413,2.8413,0,0,2.8247,2.8259,2.825,2.8259,2.8273,2.8288,2.8286,2.8305,2.8313,2.8306,2.833,2.8328,2.8329,2.8335,2.8338,2.8299,2.8316,2.8299,2.827,2.8258,2.8252,2.8248,2.8231,2.8225,2.8296,2.8296,2.8296,0,2.8218,2.8218,2.8243,2.8239,2.8242,2.8272,2.8262,2.8269,2.8282,2.8283,2.8297,2.8298,2.8308,2.8294,2.8285,2.8287,2.8283,2.8296,2.8252,2.8247,2.8243,2.8227,2.8221,2.8294,2.8294,2.8294,2.8294,0,2.8181,2.8181,2.8171,2.8184,2.8187,2.8179,2.8201,2.8201,2.8216,2.8229,2.822,2.8233,2.8236,2.8235,2.825,2.8223,2.823,2.8247,2.8271,2.8233,2.8219,2.8213,2.829,2.8291,2.8292,2.8292,0,0,2.8117,2.8143,2.8139,2.8144,2.8161,2.816,2.8153,2.8157,2.8155,2.8163,2.8156,2.8155,2.8171,2.8175,2.819,2.818,2.8145,2.8199,2.8199,2.8186,2.8113,2.8098,2.8091,2.8157,2.8156,2.8155,2.8111,0,2.8079,2.8069,2.8091,2.8075,2.8073,2.8101,2.8094,2.8103,2.8114,2.8113,2.8125,2.8123,2.8146,2.8147,2.8139,2.8151,2.813,2.8155,2.8148,2.8147,2.8142,2.8084,2.8068,2.8026,2.8106,2.8105,2.8104,0,2.8034,2.8039,2.8023,2.8039,2.8039,2.8033,2.8037,2.8037,2.8046,2.8055,2.8058,2.8076,2.8068,2.8092,2.8079,2.8095,2.8094,2.8099,2.8098,2.8096,2.8122,2.8078,2.8013,2.8006,2.8096,2.8097,2.8097,0,2.7985,2.7989,2.7979,2.7983,2.8002,2.7996,2.8003,2.8014,2.8015,2.8018,2.8018,2.8021,2.8021,2.8022,2.8039,2.8055,2.8023,2.8049,2.8028,2.8027,2.8018,2.8018,2.795,2.8021,2.8021,2.8021,2.8021,0,2.7939,2.7927,2.7957,2.7951,2.7937,2.7962,2.7947,2.7957,2.7966,2.7961,2.7985,2.7979,2.8004,2.8,2.8013,2.7999,2.8,2.8005,2.8008,2.8001,2.8,2.7999,2.8001,2.802,2.802,2.802,2.8021,0,2.7882,2.7901,2.7892,2.7911,2.7915,2.7904,2.7919,2.7913,2.7926,2.7918,2.7918,2.7937,2.7934,2.7952,2.7951,2.796,2.7938,2.7947,2.7935,2.7937,2.7913,2.7914,2.784,2.783,2.791,2.7909,2.7908,0,2.785,2.7842,2.7859,2.7858,2.7864,2.7861,2.7862,2.7885,2.7884,2.7893,2.7884,2.7883,2.7883,2.7875,2.7888,2.7887,2.7895,2.7869,2.7895,2.7888,2.7891,2.7891,2.7889,2.7863,2.7862,2.7861,2.7861,0,2.7791,2.78,2.7801,2.7804,2.7804,2.7808,2.7813,2.781,2.7834,2.7831,2.7828,2.7828,2.7827,2.7824,2.7826,2.7831,2.7849,2.7853,2.7847,2.7839,2.7831,2.7832,2.7917,2.7854,2.7855,2.7855,2.7855,2.7856,2.7743,2.7736,2.7747,2.7746,2.7752,2.7755,2.775,2.7762,2.776,2.7762,2.7775,2.7768,2.7776,2.7779,2.7783,2.7777,2.7789,2.7782,2.7779,2.7776,2.7771,2.7834,2.7778,2.7778,2.7778,2.7778,2.7778,0,2.7683,2.7691,2.769,2.7696,2.7694,2.7713,2.7719,2.7715,2.771,2.7716,2.7715,2.771,2.7707,2.7719,2.7717,2.771,2.7717,2.7708,2.7707,2.7708,2.7762,2.7766,2.7702,2.7702,2.7702,2.7702,2.7702,2.7702,2.7651,2.7639,2.765,2.764,2.7648,2.7642,2.7644,2.7646,2.7651,2.7644,2.7642,2.765,2.7658,2.7657,2.7654,2.7657,2.7654,2.7641,2.7647,2.7697,2.7704,2.7711,2.7715,2.7641,2.7641,2.7593,2.7593,2.7592]}]]